User: anonymous   Login
Location: Norwich
(52.6280°N, 1.3030°E)
Time: 03:47:34
(UTC+00:00)
Language:

Meteor 1-22 Rocket - Orbit

View from above orbital plane
View from above orbital plane
View from above satellite
View from above satellite

Ground track
Ground track

The orbit data is extracted from the following two-line orbital elements,

1 08294U 75087B   14356.54086623 -.00000062  00000-0 -41892-4 0  1465
2 08294 081.2153 187.2558 0106993 082.7709 307.2106 14.08516710 17080
Epoch (UTC): 22 December 2014 12:58:50
Eccentricity: 0.0106993
inclination: 81.2153°
perigee height: 787 km
apogee height: 942 km
right ascension of ascending node: 187.2558°
argument of perigee: 82.7709°
revolutions per day: 14.08516710
mean anomaly at epoch: 307.2106°
orbit number at epoch: 1708

The dashed part of the orbit path shows where the satellite is in the earth's shadow,  

DLR